INTELSAT 19 (IS-19)     
1 38356U 12030A   19258.86296787 -.00000065  00000-0  00000-0 0  9991
2 38356   0.0130 227.7362 0002953 306.0203 297.4523  1.00272272 25735
BLOCK DM-SL R/B         
1 38357U 12030B   19258.68245457 -.00000150  00000-0 -27726-3 0  9993
2 38357   0.6955 316.4990 7090410 264.9502  54.4692  2.25329491 60030